Flag for U.S.A. Weather past 2 weeks in Birmingham, Alabama, U.S.A.

Now
73 °F

Passing clouds.


Feels Like: 75 °F
Forecast: 65 / 88 °F
Wind: No wind

Location: Birmingham International Airport

Current Time: Sep 21, 2014 at 9:45:37 AM

Latest Report: Sep 21, 2014 at 8:53 AM


Visibility: 10 mi

Pressure: 30.07 "Hg

Humidity: 74%

Dew point: 64 °F

Location of BirminghamLocation

Historic Weather in Birmingham — Graph

°F

Birmingham temperature yesterday

Maximum temperature yesterday: 84 °F (at 2:53 PM)
Minimum temperature yesterday: 67 °F (at 6:53 AM)
Average temperature yesterday: 74 °F

Past Weeks' High & Low Weather Summary

 TemperatureHumidityPressure
High93 °F (Sep 11, 3:53 PM)94% (Sep 9, 5:53 AM)30.20 "Hg (Sep 9, 5:53 AM)
Low62 °F (Sep 14, 5:53 AM)41% (Sep 18, 1:53 PM)29.92 "Hg (Sep 18, 4:53 PM)
Average77 °F73%30.03 "Hg
* Reported Sep 6 8:53 AM — Sep 21 8:53 AM, Birmingham, Weather by CustomWeather, © 2014

Note: Actual official high and low records may vary slightly from our data, if they occured in-between our weather recording intervals... More about our weather records

Advertising

Birmingham weather history for previous 24 hours

 ConditionsComfort  
Time TempWeatherWind HumidityBarometerVisibility
8:53 AM
Sep 21
73 °FPassing clouds.No wind74%30.07 "Hg10 mi
7:53 AM69 °FPassing clouds.No wind84%30.06 "Hg10 mi
6:53 AM63 °FPassing clouds.No wind93%30.05 "Hg10 mi
5:53 AM64 °FPassing clouds.No wind90%30.03 "Hg10 mi
4:53 AM64 °FClear.No wind94%30.02 "Hg10 mi
3:53 AM65 °FPassing clouds.No wind91%30.01 "Hg10 mi
2:53 AM66 °FPassing clouds.No wind90%30.01 "Hg10 mi
1:53 AM67 °FPassing clouds.3 mph87%30.02 "Hg10 mi
12:53 AM66 °FClear.3 mph90%30.04 "Hg10 mi
11:53 PM
Sep 20
68 °FClear.No wind87%30.05 "Hg10 mi
10:53 PM69 °FClear.No wind84%30.05 "Hg10 mi
9:53 PM70 °FClear.3 mph81%30.03 "Hg10 mi
8:53 PM72 °FClear.No wind78%30.02 "Hg10 mi
7:53 PM73 °FClear.No wind74%30.02 "Hg10 mi
6:53 PM78 °FSunny.3 mph58%30.01 "Hg10 mi
5:53 PM82 °FPassing clouds.3 mph51%30.01 "Hg10 mi
4:53 PM81 °FPassing clouds.5 mph51%30.01 "Hg10 mi
3:53 PM84 °FScattered clouds.8 mph48%30.02 "Hg10 mi
2:53 PM84 °FScattered clouds.9 mph49%30.03 "Hg10 mi
1:53 PM83 °FScattered clouds.7 mph53%30.06 "Hg10 mi
12:53 PM83 °FScattered clouds.5 mph53%30.08 "Hg10 mi
Weather by CustomWeather, © 2014

See weather overviewHow to use our weather pages